Theta_e
273 273 273 273 273 273 273 273 273 273 273 273 272 272 273 273 273 272 272 273 273 273 273 272 272 272 273 274 273 273 273 273 273 273 273 273 273 272 273 273 271 268 268 271 273 272 272 273 274 273 274 273 274 275 276 277 277 278 278 278 279 279 281
273 272 272 272 272 272 272 272 272 273 273 272 272 272 272 272 272 272 272 272 272 272 272 272 272 272 272 273 272 272 272 273 273 273 272 272 272 272 272 274 271 270 268 268 271 271 273 272 273 271 274 273 273 273 275 275 275 276 277 278 278 278 279
273 272 272 272 272 272 272 272 272 272 272 272 272 272 272 272 272 272 271 271 271 272 272 271 271 271 272 273 272 272 272 273 274 274 273 273 273 272 273 274 272 271 268 268 269 271 271 271 272 271 272 273 273 274 274 274 275 275 277 278 278 278 279
272 272 272 271 271 271 271 271 272 272 272 272 272 272 272 272 272 272 271 271 271 271 271 271 271 271 272 272 271 271 272 272 273 273 273 273 273 273 273 273 273 272 270 269 268 270 270 271 271 271 272 273 273 273 273 273 274 275 275 276 277 277 278
272 272 271 271 271 271 271 271 271 271 271 272 272 272 272 271 271 271 271 271 271 271 271 271 271 271 271 271 270 270 270 271 271 271 272 271 272 272 272 272 272 272 271 269 268 269 271 271 271 272 272 273 271 272 272 273 274 274 275 275 276 277 279
272 271 271 271 271 271 271 271 271 271 271 271 272 272 271 271 271 271 270 270 271 271 271 271 271 271 271 271 270 270 270 270 270 270 270 270 271 271 271 271 271 271 271 270 269 269 269 271 270 270 271 271 271 270 270 271 272 274 275 275 275 276 277
271 271 271 271 271 271 271 271 271 271 271 271 271 271 270 270 270 270 270 270 270 270 270 271 271 271 272 271 270 270 270 270 270 270 269 270 270 271 270 270 270 270 270 269 269 269 270 270 271 271 270 272 272 272 271 270 270 270 273 274 274 274 277
271 271 271 271 271 271 271 270 270 270 270 270 270 270 270 270 269 269 269 269 269 269 269 270 271 271 271 271 271 271 270 270 269 270 269 270 270 270 269 269 269 269 269 269 269 269 269 270 270 270 271 272 272 270 270 271 270 268 270 271 274 275 275
271 270 270 270 270 270 270 270 270 270 270 269 269 270 269 269 269 269 268 268 268 269 269 269 269 270 271 271 272 272 272 272 271 270 269 269 270 269 269 269 269 269 269 269 268 268 269 269 269 269 270 270 269 269 268 270 271 270 271 271 272 274 276
270 270 270 269 269 270 270 269 269 270 272 272 269 269 269 269 269 268 268 267 267 268 268 268 269 269 271 271 271 272 272 273 273 273 271 270 269 269 268 268 268 268 269 268 268 268 268 268 268 269 270 270 271 272 272 271 270 269 270 271 271 272 274
270 269 269 269 269 269 269 269 269 272 273 273 273 270 268 268 268 268 267 267 267 267 267 268 268 269 270 270 271 271 272 272 273 273 273 273 273 272 269 268 268 268 269 269 268 269 269 268 268 269 271 271 271 272 271 270 271 270 270 269 268 267 272
269 269 269 269 269 268 268 268 270 272 273 273 274 273 269 267 267 267 267 267 266 267 267 267 268 268 269 269 269 270 270 271 272 273 274 274 274 273 273 273 270 268 268 268 268 268 269 269 268 269 270 270 271 271 271 271 271 270 270 269 269 270 269
269 268 269 268 268 267 268 268 271 272 273 273 274 274 272 267 266 266 266 266 266 266 266 267 267 268 268 268 270 270 269 269 270 272 273 273 273 273 274 274 274 274 271 270 269 269 269 269 270 269 270 271 272 272 271 271 271 271 270 270 270 270 271
268 268 268 268 267 267 267 267 270 272 273 273 273 274 273 269 266 266 266 266 266 266 266 267 267 267 267 268 268 269 268 268 269 269 270 271 271 272 273 274 275 275 275 274 271 270 269 271 271 271 272 273 273 271 270 270 270 271 271 270 270 271 272
267 267 267 267 267 267 266 266 270 272 272 273 273 273 273 270 269 267 266 267 267 267 267 267 267 267 267 268 268 268 269 268 268 268 269 270 271 271 272 272 273 273 274 273 273 272 271 272 273 273 274 274 274 273 272 272 272 272 272 272 273 273 273
268 267 266 267 266 266 265 266 271 271 272 272 273 273 270 269 269 268 268 267 267 267 268 268 268 267 267 268 268 270 272 271 269 268 268 268 269 271 272 272 275 276 277 275 275 274 273 273 274 276 274 275 274 273 273 273 273 273 272 271 270 268 271
267 267 267 266 266 265 265 265 269 271 272 272 272 271 269 268 268 268 267 268 268 268 268 268 268 268 268 268 268 270 273 274 273 268 268 268 269 270 270 271 273 276 278 279 279 279 279 278 278 278 278 278 278 275 274 273 271 270 270 269 268 269 270
267 267 267 266 265 265 265 265 267 270 271 272 272 271 268 268 267 267 267 267 268 268 269 269 270 270 269 269 269 272 273 275 274 270 269 269 269 269 269 271 273 273 275 279 279 280 280 280 279 279 279 279 279 279 277 272 269 270 271 269 269 269 270
266 266 267 266 265 266 265 265 266 269 270 271 272 270 268 268 267 266 266 266 267 268 268 269 270 271 271 270 271 273 274 275 275 272 271 271 270 270 270 271 273 273 272 273 274 275 276 277 278 278 278 278 279 279 278 274 272 272 271 270 270 270 271
266 265 266 266 265 265 265 264 264 266 269 270 271 271 268 267 266 265 265 266 266 266 267 268 269 270 273 274 274 274 275 276 276 274 274 273 271 271 271 273 274 274 273 273 273 273 274 275 276 276 277 278 277 277 278 276 274 274 273 272 271 271 271
266 265 265 265 265 264 264 264 264 264 268 269 270 271 270 267 266 266 266 266 266 267 267 268 268 269 271 273 275 275 276 276 277 277 275 275 274 274 275 276 274 274 276 274 274 274 274 274 274 275 276 276 277 277 277 277 276 274 275 273 272 272 272
265 264 264 264 264 264 263 264 264 263 266 268 269 270 270 267 267 267 266 266 266 267 268 268 270 270 272 274 275 276 277 277 278 278 276 276 278 279 278 276 276 275 275 275 275 274 274 274 274 274 274 275 276 276 277 278 277 275 275 275 275 274 273
263 263 262 262 263 263 263 263 263 264 263 266 268 269 270 270 269 270 268 266 266 267 268 269 270 271 273 274 276 276 277 277 278 278 277 278 279 279 279 278 277 277 276 275 275 274 274 274 274 273 274 274 275 276 277 277 278 277 276 276 276 277 276
262 262 261 261 261 262 262 262 262 263 265 264 266 268 269 270 271 271 268 268 267 268 269 269 270 272 274 276 276 277 277 277 277 277 278 278 278 277 278 277 276 276 276 276 275 274 274 274 274 274 274 274 275 276 276 277 277 278 278 276 276 276 277
262 261 261 261 260 261 261 262 262 262 263 265 265 267 268 269 271 271 271 268 269 269 270 272 274 274 275 276 277 277 277 277 277 278 277 277 277 277 276 276 276 276 276 275 274 274 275 275 275 275 275 276 276 277 278 277 277 277 278 278 277 277 277
262 261 261 260 261 261 261 262 262 262 262 263 264 265 267 269 269 269 270 271 270 271 272 273 274 275 275 275 275 275 275 275 275 277 277 277 277 276 276 276 275 275 275 274 274 275 274 275 276 277 277 277 277 276 276 276 276 275 275 276 276 276 276
261 261 260 260 261 261 261 261 262 262 262 263 263 264 265 266 267 269 270 270 270 271 271 271 273 274 275 275 275 275 276 275 276 275 275 275 275 275 275 276 275 275 274 274 274 274 275 275 276 277 277 277 276 275 276 276 275 275 274 275 275 275 274
261 261 260 260 261 261 261 261 261 262 262 263 264 265 266 266 266 267 268 268 270 270 271 271 273 273 273 273 273 274 274 274 274 274 274 274 275 275 275 275 276 276 275 275 275 275 275 275 275 275 275 276 276 275 275 276 275 274 274 274 274 273 272
262 261 262 262 261 260 260 261 261 262 266 265 267 266 266 266 267 268 269 270 272 271 272 272 272 271 271 272 271 271 272 272 273 273 273 273 273 273 273 272 272 272 272 273 273 273 273 273 273 273 274 275 275 275 275 276 275 275 274 274 274 272 272
263 263 263 262 262 263 262 262 264 267 268 268 269 270 269 270 271 271 271 272 273 272 270 270 270 270 270 270 270 270 270 271 271 271 271 271 272 272 271 271 271 272 272 273 272 272 272 272 272 272 273 273 274 275 275 276 275 274 274 273 272 272 272
268 267 265 263 262 263 265 265 266 267 269 270 270 271 271 272 272 272 272 273 271 270 269 269 268 269 269 269 270 269 270 270 270 270 270 270 270 271 271 271 271 271 271 271 271 271 271 271 271 272 272 272 273 274 275 275 275 275 274 273 273 272 272
268 268 268 267 265 264 263 265 266 267 269 270 271 272 272 272 272 273 273 273 272 269 269 269 269 268 268 269 269 269 269 270 270 270 270 270 269 270 270 270 270 270 269 269 269 269 270 270 270 271 271 271 272 273 273 274 275 274 274 273 274 273 273
268 268 268 269 269 268 267 266 267 268 269 270 271 272 272 273 273 273 273 273 270 269 268 269 269 269 269 269 268 269 269 269 269 268 268 269 268 268 268 266 262 263 265 268 269 269 269 270 270 270 270 271 271 271 271 272 272 274 274 274 273 273 274
268 268 269 269 269 269 269 269 269 269 270 271 271 272 272 271 270 272 272 271 269 269 268 268 268 268 268 268 268 267 267 267 266 266 265 265 265 265 263 261 260 263 265 267 267 268 268 268 268 268 268 269 270 270 271 271 271 272 273 273 273 273 273
263 266 268 267 268 269 270 270 270 270 270 271 271 271 271 271 268 267 267 267 266 266 267 266 266 266 266 266 266 266 266 265 265 264 264 264 263 263 262 262 263 264 265 266 266 266 266 266 266 266 267 268 268 269 269 269 270 271 271 271 273 273 273
263 263 265 268 269 269 270 271 271 271 271 271 271 270 270 267 266 266 265 265 265 265 265 265 265 265 265 266 265 265 264 264 265 264 263 263 262 262 262 262 264 264 264 264 265 265 265 264 264 265 265 265 266 265 265 267 268 269 270 270 270 272 274
Wind_Speed
12 12 12 13 13 13 13 14 14 13 13 13 13 13 13 13 13 14 12 11 12 12 10 10 10 10 10 9 8 7 7 7 7 6 6 6 6 7 7 7 7 9 10 8 7 8 8 7 8 9 7 8 7 7 6 7 7 8 7 7 6 6 9
11 11 12 12 13 13 14 14 14 14 13 13 14 14 12 13 14 14 14 12 13 13 10 10 10 10 10 9 9 8 8 8 8 8 7 7 7 7 7 8 7 9 9 9 7 8 7 8 7 9 7 8 8 8 7 8 7 7 7 7 6 6 6
12 12 13 13 13 13 13 14 14 14 14 13 14 14 13 13 14 14 14 14 13 13 11 11 11 11 11 10 11 10 10 9 9 9 9 9 8 8 8 8 7 8 8 8 8 8 8 7 7 8 8 8 8 8 7 7 6 5 4 5 7 7 6
12 12 13 13 13 13 13 14 13 14 14 14 14 14 13 13 13 13 12 12 11 11 11 12 12 12 13 12 11 11 12 11 10 10 10 9 10 9 9 9 9 9 8 7 8 7 8 7 8 8 8 8 8 8 8 7 7 6 6 6 6 7 6
12 12 13 13 14 14 14 14 14 14 14 14 13 14 13 12 11 11 11 11 11 11 11 12 13 13 14 14 12 12 12 12 11 10 11 10 10 9 9 8 8 8 8 8 8 8 7 7 7 8 8 8 8 7 6 6 5 5 6 7 6 6 6
11 12 13 13 13 13 14 14 13 14 14 14 14 14 13 12 12 12 10 11 12 11 11 13 12 13 13 14 14 13 12 10 11 10 10 10 10 9 8 9 8 7 7 8 8 8 8 7 8 8 7 8 8 9 7 6 6 6 5 5 5 4 3
13 12 12 13 13 14 14 14 14 13 13 14 14 12 11 13 14 14 13 13 14 13 12 12 13 13 13 13 13 13 13 11 10 10 10 10 9 9 8 9 8 8 8 7 7 7 8 8 7 8 8 7 7 8 7 8 6 6 5 6 6 6 3
13 12 12 13 13 13 12 12 13 13 13 12 12 12 11 14 14 14 14 13 14 14 13 13 13 12 12 12 12 12 11 11 12 11 12 11 10 10 8 9 8 8 8 7 7 7 7 6 7 7 8 7 7 7 6 6 6 7 6 5 5 4 4
11 12 12 12 12 12 12 12 12 11 12 11 11 10 11 15 15 14 14 13 13 13 13 13 12 12 12 14 18 20 18 16 14 11 11 11 10 10 10 9 8 8 8 7 7 7 6 6 7 7 7 7 5 6 6 7 6 6 7 6 6 4 3
11 11 12 12 12 12 11 11 10 13 21 19 12 10 11 13 14 14 13 13 12 12 12 13 12 13 20 21 21 21 22 22 21 20 13 10 11 11 11 10 9 9 8 8 8 8 7 7 7 6 7 7 7 7 6 5 5 6 6 6 5 7 4
11 11 11 12 12 12 11 10 10 20 22 23 24 15 10 13 13 13 13 12 12 11 12 12 13 12 16 19 21 20 25 23 23 23 22 20 17 15 12 10 11 10 9 8 8 8 7 8 7 7 7 7 7 5 6 5 6 6 5 4 5 4 5
11 11 11 10 11 11 11 11 16 23 23 23 24 22 13 12 12 11 11 12 12 11 11 11 12 12 11 12 14 14 15 20 24 24 24 23 21 20 20 17 11 9 9 9 8 8 8 7 7 7 6 6 5 5 5 5 4 4 5 5 5 5 4
11 11 11 11 11 11 11 10 19 22 24 23 23 25 20 12 13 12 13 12 12 12 11 10 10 11 11 11 20 17 14 12 16 23 25 23 23 22 21 21 21 17 9 6 8 9 9 8 7 6 7 6 6 4 3 3 3 4 4 5 5 5 4
12 11 11 11 10 11 10 11 17 23 23 23 24 24 21 10 14 14 13 13 13 12 12 11 11 11 11 11 12 13 14 14 14 13 15 16 16 15 19 22 22 22 22 15 9 8 9 8 7 7 5 6 5 4 5 4 4 4 5 5 5 7 5
12 11 10 10 10 9 12 10 19 22 23 23 23 23 20 10 11 10 12 13 13 13 12 13 12 12 11 12 12 12 15 15 14 14 13 13 14 15 14 14 15 14 12 13 11 10 10 7 8 9 7 5 6 7 6 5 4 5 5 5 6 3 2
10 10 10 11 10 10 13 11 21 22 22 23 22 23 14 11 11 10 9 11 13 12 12 12 12 12 13 13 13 16 22 20 14 14 14 14 14 13 13 14 15 19 18 15 12 11 11 9 10 11 9 9 7 7 6 5 5 5 5 4 4 5 5
13 13 12 12 11 13 11 12 17 21 22 22 23 19 11 10 9 8 9 10 10 12 13 13 13 13 13 13 14 18 21 23 21 13 15 14 14 12 11 12 11 18 22 23 24 23 23 23 22 21 19 17 17 10 7 5 5 6 5 5 6 6 6
12 12 12 12 12 12 12 11 14 21 21 22 23 19 11 9 8 9 11 10 12 10 10 13 21 18 14 14 14 20 22 23 20 14 14 13 14 16 14 12 9 8 12 22 24 24 24 23 22 22 22 21 20 19 13 7 8 6 5 6 6 6 5
11 10 10 11 11 15 13 11 13 19 21 22 22 18 11 9 9 10 10 10 11 11 11 11 14 21 18 16 16 21 22 24 20 14 14 14 13 13 14 12 10 10 9 9 9 11 12 12 15 13 12 13 21 20 16 10 8 5 7 6 6 6 5
10 10 10 9 10 10 11 10 10 13 20 20 21 21 13 8 8 10 11 10 10 10 11 12 11 15 23 24 23 22 23 22 24 16 13 12 12 12 14 10 9 10 9 9 9 9 7 8 6 6 5 6 10 12 12 11 9 8 7 7 6 6 5
9 9 9 8 9 8 9 9 9 11 18 19 20 20 19 10 10 11 10 9 11 10 10 11 12 12 18 24 25 24 24 23 23 22 14 12 11 13 12 10 9 12 14 8 9 8 7 6 5 6 7 7 6 7 9 9 9 10 9 8 7 6 6
8 7 7 7 8 8 8 9 13 8 14 18 19 19 22 13 11 12 10 11 10 11 10 11 10 11 15 21 23 25 25 25 25 26 15 13 20 20 20 11 10 8 9 9 8 7 7 7 6 6 6 7 8 8 8 8 8 10 11 9 9 8 7
7 6 6 6 6 6 7 7 8 14 12 16 18 19 20 22 15 18 13 10 10 10 10 9 9 10 17 20 22 23 25 25 26 21 13 16 18 19 19 14 8 8 9 9 9 8 8 8 8 7 7 7 7 8 8 8 7 9 11 11 10 10 9
6 6 6 6 6 6 6 7 7 11 16 14 18 19 21 21 22 20 13 11 10 9 9 10 11 12 18 20 21 23 24 24 22 12 16 16 14 12 11 6 6 7 8 9 9 9 8 8 7 7 7 7 7 7 7 8 7 7 9 11 10 11 11
6 7 6 6 7 6 6 6 6 7 11 17 17 19 19 20 21 22 22 14 11 11 10 12 16 16 18 19 20 22 20 16 15 15 14 13 11 10 5 4 4 5 4 6 8 8 8 7 7 7 6 5 5 6 5 5 6 6 7 8 9 10 11
6 6 6 7 6 6 6 6 6 7 8 9 13 15 19 20 19 20 21 19 12 15 17 16 16 18 18 14 12 9 8 6 6 11 12 11 9 5 5 4 5 4 4 3 4 5 6 5 5 5 5 6 5 5 6 6 7 7 6 6 6 5 7
6 6 6 7 7 6 6 6 6 7 6 7 7 8 10 12 13 18 18 15 13 15 13 14 15 11 12 10 11 11 9 8 8 6 6 5 6 6 6 5 4 5 5 4 3 3 3 3 1 1 1 4 6 6 6 5 5 6 6 6 6 6 4
7 7 7 6 6 6 6 6 7 6 6 6 7 7 8 9 9 10 10 11 11 10 11 11 14 14 8 8 7 8 6 7 5 5 4 5 5 5 3 3 5 5 2 2 3 3 3 2 0 2 2 3 5 6 5 5 5 6 6 6 6 5 6
7 7 6 6 6 6 6 6 6 6 7 8 10 8 7 8 9 9 9 12 15 11 10 9 8 7 8 8 7 6 7 6 6 6 5 5 5 6 5 4 3 4 4 5 3 3 3 2 3 4 4 3 4 5 6 6 6 6 6 6 6 7 6
7 6 5 6 6 6 6 5 4 7 11 12 13 14 13 12 13 14 10 12 15 10 7 7 7 8 7 7 6 6 6 6 5 5 5 5 6 5 5 4 4 5 5 4 4 4 4 5 7 7 6 6 5 5 5 7 9 7 6 6 7 7 6
16 14 11 7 5 6 11 12 12 13 9 11 13 13 14 15 14 14 12 11 8 6 5 5 5 5 6 6 7 6 7 6 6 7 6 6 6 6 6 6 5 5 3 3 4 4 4 4 4 5 5 6 7 6 5 5 7 7 8 7 6 6 6
14 15 14 15 11 6 4 8 11 14 15 12 11 13 14 13 14 13 13 11 9 5 5 5 6 6 6 7 7 6 5 5 7 7 7 7 8 8 6 6 4 2 2 2 3 5 6 5 4 4 4 4 5 5 5 4 4 7 6 6 7 7 6
12 12 13 14 15 15 9 6 6 10 11 11 9 12 12 13 13 13 13 13 9 6 6 6 5 5 6 7 6 5 4 5 5 5 5 6 6 6 5 3 4 2 0 2 3 5 6 6 6 4 4 5 5 4 4 4 4 4 5 6 6 7 7
10 11 12 11 11 12 10 11 8 8 8 9 6 7 10 8 7 9 7 6 3 4 4 4 5 5 5 5 5 4 4 4 3 3 4 3 3 4 4 3 2 1 2 3 4 4 3 2 2 2 3 4 5 5 4 3 4 3 3 5 7 6 7
4 5 13 6 7 8 11 10 9 8 8 6 4 5 12 13 5 4 3 4 4 3 3 2 3 4 4 4 5 4 4 4 4 4 3 3 3 3 3 3 3 4 4 4 3 3 3 3 2 2 2 3 4 4 3 3 3 3 2 3 4 7 7
4 4 9 11 3 8 12 11 10 10 6 6 12 11 8 4 3 3 2 2 3 2 2 2 2 3 3 4 4 4 3 3 3 4 3 2 2 3 3 3 4 4 4 3 3 3 3 3 2 2 2 1 2 1 1 1 1 1 1 1 2 4 4
Wind_Direction
204 204 206 204 205 209 209 211 214 214 213 213 212 211 213 212 210 210 211 209 211 210 214 218 220 219 221 222 225 224 221 223 225 224 230 229 227 232 239 247 243 252 265 269 275 285 286 286 286 290 294 295 292 290 292 296 300 304 305 304 301 311 316
203 205 206 205 208 209 211 213 214 216 215 215 213 212 211 211 210 209 210 209 210 210 210 213 217 219 219 221 224 225 228 224 216 216 218 221 227 232 235 243 244 249 255 266 273 275 279 284 283 278 280 286 290 283 283 286 290 289 290 287 296 299 313
206 202 204 207 208 209 212 214 215 215 217 217 215 214 212 212 210 209 208 208 209 210 209 209 212 220 222 219 220 219 224 231 232 224 223 222 220 225 236 241 238 245 250 258 264 271 278 280 284 279 279 271 273 280 280 278 278 289 289 286 290 294 289
207 203 206 208 208 207 211 214 215 216 216 218 216 217 215 213 211 210 209 208 208 209 210 213 218 221 220 220 221 221 221 224 234 235 231 230 231 235 235 237 238 236 246 253 264 262 267 274 279 280 283 288 283 281 281 273 268 262 269 278 280 282 281
206 207 207 208 210 208 210 213 214 217 217 217 217 216 216 215 215 212 213 213 212 212 215 219 222 220 217 214 217 218 217 218 219 222 223 223 223 227 228 230 231 236 236 245 252 262 264 274 274 280 282 276 281 278 279 283 281 262 253 255 252 250 266
205 206 209 208 211 210 211 212 214 216 219 218 216 218 216 219 218 218 215 218 222 218 219 223 222 220 215 211 211 213 213 213 215 213 218 218 217 217 219 221 225 229 233 237 248 253 261 259 266 272 270 269 268 279 283 285 287 294 296 294 282 279 275
209 206 207 209 209 211 209 212 212 215 218 218 218 214 214 219 222 222 225 224 225 225 225 225 223 219 215 212 211 213 212 208 208 211 213 216 217 215 212 214 217 222 225 231 240 246 250 259 261 264 276 276 272 264 269 279 287 279 271 257 259 264 253
207 208 206 208 208 209 208 209 211 213 216 217 218 218 215 221 220 223 222 222 223 223 224 225 225 223 217 214 211 211 212 207 208 206 209 209 209 211 209 208 208 211 216 223 231 240 246 249 258 262 264 275 280 282 270 266 271 272 278 280 265 253 262
205 203 207 207 208 208 207 209 210 211 212 214 215 216 220 220 221 221 220 221 222 221 219 220 224 224 222 219 218 216 215 213 208 201 205 206 203 202 201 203 206 205 207 214 222 231 237 247 253 255 262 261 259 262 260 256 248 264 268 276 277 280 262
208 202 203 204 206 208 207 209 209 209 213 218 218 214 215 219 219 219 219 219 220 220 218 219 220 223 224 224 223 221 219 219 215 211 207 202 199 198 197 199 200 202 203 207 215 223 226 234 241 246 249 255 259 266 282 296 290 281 288 271 269 254 254
208 207 204 204 203 206 206 206 205 211 221 221 220 213 207 214 214 214 217 218 217 218 220 221 222 221 223 224 224 224 224 224 222 220 216 212 205 200 196 192 196 201 201 203 212 218 220 226 236 238 243 253 258 265 260 263 264 262 263 282 277 288 266
208 204 203 203 204 204 204 205 207 218 220 224 223 216 202 205 206 207 211 216 219 222 222 222 222 220 219 221 220 219 223 225 225 224 221 219 217 214 210 207 198 193 198 204 208 216 220 220 226 231 231 239 246 249 256 262 269 273 270 270 280 284 313
208 203 202 200 200 205 205 206 216 219 222 224 221 221 209 194 200 205 215 217 219 218 219 221 222 220 215 216 221 221 220 224 229 227 224 222 223 224 221 217 216 213 207 193 209 217 220 215 214 218 223 226 235 242 244 254 260 265 275 270 275 277 274
209 202 198 199 197 203 206 212 215 222 225 223 220 220 217 181 192 204 206 208 207 208 212 217 222 222 221 216 216 218 218 218 222 224 226 226 225 224 225 225 224 223 221 219 214 213 219 211 207 216 207 204 212 218 220 232 240 251 253 259 259 253 268
210 203 195 195 197 198 212 206 215 222 224 223 220 220 221 215 207 196 201 206 204 203 204 205 214 224 228 224 218 216 214 213 213 214 219 222 222 222 222 223 226 225 221 222 221 222 226 215 213 217 213 203 191 201 216 220 234 249 254 254 259 275 272
209 203 192 198 192 204 215 211 217 220 221 220 222 224 225 220 215 216 209 199 203 206 206 206 208 217 225 225 223 219 217 211 207 208 211 215 218 220 221 225 225 225 225 224 222 220 224 224 223 222 214 203 190 192 204 219 242 253 255 273 285 260 254
223 219 211 203 197 204 208 214 218 220 220 221 224 225 222 220 220 221 223 228 213 205 207 208 210 217 223 222 223 223 220 214 205 203 206 208 210 214 218 224 222 228 230 231 234 232 230 231 233 232 230 228 223 210 195 195 220 224 214 221 241 253 259
224 220 211 204 199 200 209 215 217 221 223 225 225 220 215 214 218 223 230 230 231 228 216 212 217 220 219 221 222 222 221 218 207 199 204 204 207 211 216 224 216 217 229 234 237 240 242 239 234 230 233 237 233 227 209 177 208 203 192 220 232 254 260
222 219 215 209 203 204 205 216 220 218 220 224 226 223 215 211 212 224 223 224 225 224 227 227 225 222 217 217 223 223 221 219 213 202 202 203 204 208 214 215 203 206 210 219 232 241 244 250 248 241 228 227 236 234 222 191 203 176 197 209 223 234 256
217 215 213 205 199 202 206 205 212 215 221 223 225 224 220 213 215 217 221 221 221 220 221 223 225 227 228 226 224 224 224 222 216 206 201 195 202 207 217 209 202 204 200 208 214 224 221 232 230 233 234 216 216 225 231 205 193 195 198 208 215 220 228
218 212 208 202 197 194 202 204 204 209 219 226 227 227 224 215 215 221 220 218 219 221 219 217 219 224 225 226 226 224 224 225 224 217 210 199 198 208 215 197 202 210 208 202 213 221 212 217 221 225 225 226 220 212 212 211 187 195 200 205 209 212 224
209 207 202 199 194 194 197 203 207 206 222 226 228 228 228 227 221 214 213 216 217 219 221 220 216 215 220 221 223 224 223 224 226 225 219 213 208 208 215 198 199 197 200 206 208 213 216 213 211 214 215 217 220 220 211 205 195 184 199 208 211 209 216
204 199 197 195 199 197 198 199 208 219 222 231 235 235 233 229 224 218 212 215 217 216 219 222 227 228 222 220 222 221 222 224 228 229 225 215 202 205 209 205 200 202 200 200 206 206 209 207 204 207 211 214 215 216 213 211 206 189 189 201 210 217 223
203 205 203 202 213 208 205 207 209 224 229 228 231 235 236 234 227 217 216 211 217 218 220 220 220 224 226 220 219 219 219 221 227 224 211 205 203 204 206 204 211 219 212 203 195 199 202 199 197 195 202 209 212 216 209 209 205 195 185 194 207 214 223
207 210 215 213 217 216 213 210 216 222 230 232 232 233 234 233 228 222 215 213 213 217 223 225 223 222 226 229 220 217 216 216 216 205 202 201 204 211 218 222 225 225 217 204 184 188 190 198 199 201 206 201 204 205 198 188 195 198 199 195 196 207 214
215 212 217 223 221 225 225 223 220 228 225 229 234 236 235 232 228 227 224 219 215 218 224 228 227 227 229 226 212 204 203 203 211 211 207 208 211 213 221 225 215 199 195 200 178 181 190 193 196 199 194 186 186 188 211 195 193 192 198 202 205 196 205
219 216 215 222 226 226 228 226 232 232 225 213 221 221 222 225 226 222 223 225 221 220 222 230 234 234 223 215 210 205 201 202 207 208 212 204 210 212 217 218 203 200 195 200 204 202 193 199 214 259 217 193 184 196 197 185 186 179 188 189 199 204 195
221 220 218 224 227 225 225 233 233 228 221 219 210 211 202 205 205 209 210 214 218 216 219 221 232 237 233 211 203 204 201 206 202 197 190 172 168 178 174 165 188 196 205 213 221 219 200 192 176 241 246 219 183 187 182 178 191 190 190 184 180 192 206
232 227 228 224 222 221 229 233 234 227 221 217 208 200 200 194 194 197 204 210 213 215 212 217 220 200 198 191 190 194 198 193 189 185 185 172 158 157 159 168 166 179 191 199 200 208 205 202 206 224 233 239 198 195 198 188 193 202 196 184 180 192 197
235 220 215 219 230 232 236 236 245 236 218 216 212 206 201 196 193 191 187 193 186 165 161 169 169 170 172 178 192 197 197 196 187 175 168 166 167 172 183 182 193 201 199 196 194 187 196 214 222 227 224 221 225 217 205 195 188 191 195 186 185 193 201
247 234 216 220 237 239 244 247 258 271 255 213 211 209 202 194 193 187 179 173 169 170 179 177 177 178 183 194 199 202 206 205 201 196 180 176 185 183 188 181 178 190 183 161 167 189 209 222 218 215 212 215 219 228 222 197 184 189 188 194 189 195 202
256 250 234 217 219 227 248 251 250 254 265 269 231 203 198 190 192 194 195 197 187 191 196 194 187 189 193 197 204 206 204 205 203 194 184 178 173 175 170 172 173 136 152 179 196 204 207 211 218 217 219 221 223 223 229 237 205 187 190 193 196 202 206
254 255 256 248 232 223 228 243 235 243 259 268 265 200 191 196 196 200 202 199 195 198 202 199 198 190 182 174 180 180 159 159 157 153 147 161 160 162 156 98 67 54 94 179 197 194 202 205 204 210 211 215 218 223 233 233 246 224 199 195 203 209 207
290 271 254 251 248 236 232 229 232 241 249 263 291 211 198 141 102 101 105 116 134 144 135 141 148 149 144 142 143 141 161 166 125 116 113 104 84 93 87 95 123 140 186 187 180 182 190 182 188 195 198 208 209 216 221 228 228 237 252 217 194 204 208
315 333 345 303 232 230 211 205 208 217 223 254 240 168 127 114 109 90 73 63 56 73 86 91 104 117 126 139 146 146 154 157 130 124 123 128 124 117 121 137 175 183 181 183 174 185 185 183 183 186 208 213 208 204 206 210 219 223 221 287 246 199 204
344 356 311 359 29 217 217 212 194 200 212 113 96 95 93 103 110 108 93 79 69 67 86 88 93 105 127 136 141 141 136 141 160 122 112 110 124 139 149 165 173 173 176 179 182 177 168 157 181 200 203 215 224 229 234 247 219 217 236 230 298 315 236